User: anonymous   Login
Location: Godiavel Galaoual
(15.2485°N, 12.6604°W)
Time: 06:34:27
(UTC+00:00)
Language:

Cosmos 2034 Rocket - Orbit

View from above orbital plane
View from above orbital plane
View from above satellite
View from above satellite

Ground track
Ground track

The orbit data is extracted from the following two-line orbital elements,

1 20150U 89059B   20151.65895118 -.00000009 +00000-0 -24906-4 0  9997
2 20150 082.9407 014.0324 0029626 148.7208 275.5274 13.75647876548451
Epoch (UTC): 30 May 2020 15:48:53
Eccentricity: 0.0029626
inclination: 82.9407°
perigee height: 957 km
apogee height: 1001 km
right ascension of ascending node: 14.0324°
argument of perigee: 148.7208°
revolutions per day: 13.75647876
mean anomaly at epoch: 275.5274°
orbit number at epoch: 54845

The dashed part of the orbit path shows where the satellite is in the earth's shadow,  

DLR